Location: Forli
(44.2227°N, 12.0407°E)
Time: 03:09:42
(UTC+02:00)

DX 1 - Pass Details

Date: 18 April 2026
Orbit: 593 x 604 km, 98.4° (Epoch: 19 May)

Event Time Altitude Azimuth Distance (km) Brightness Sun altitude
Rises 03:45:36 0° 21° (NNE) 2,841 ? -24.8°
Reaches altitude 10° 03:47:54 10° 29° (NNE) 1,935 ? -24.5°
Maximum altitude 03:51:50 39° 98° (E) 902 ? -24.1°
Enters shadow 03:52:53 33° 133° (SE) 1,011 ? -23.9°
